Darstellungsparameter: Aktuell verwendete Einstellungen:
Skalierung der Graphiken ... ?
xyx+y,   Skalierungsfaktor:      Skalierung: Modus: x, Faktor: 1
Darstellungszeitraum ... ?
Vom - - bis: - -   Zeitraum: 05.07.2020 - 05.07.2020
Min/Max/Avg-Anzeige ... ?
Zeige MMA aktuell
Zeige MMA Monat
Zeige MMA alles
Zeige --A aktuell
Zeige --A Monat
Zeige --A alles
Keine MMA-Anzeige
MMA:
Minimum Maximum Average (ber die Originaldaten)
MMA-Basis: 27.05.2020 - 29.06.2020
Quicknavigation für Darstellung... ?
Tage:      1T, 2T, 3T, 5T -1T -2T -3T -5T +1T +2T +3T +5T
Wochen: 1W, 2W, 3W -1W -2W -3W +1W +2W +3W
Monate: 1M, 3M, 6M -1M -3M -6M +1M +3M +6M
Jahre:    1J, 3J, 5J, 10J -1J -3J -5J -10J +1J +3J +5J +10J
Nutze für die Darstellung ... ?
Originaldaten oder Mittelwerte auf ...
Stundenbasis Tagesbasis Wochenbasis
Monatsbasis Jahresbasis      Datenbasis: Original-Daten
Darstellen als:
Statistik (Auto) Statistik J:M      Darstellung:
Zur Graphik,    zurück zur Übersicht aller Sensoren.
 
Tabellarische Datenbersicht: ?
 
Sensor: Nr:Datum:Temp:Abs-Feuchte:Windchill:Wind:
Aussen-T/F 1 05-07-2020 00:00:00 21.4 C 13.31 g/m*3 21.4 C 12.9 km/h
2 05-07-2020 00:05:00 21.4 C 13.31 g/m*3 21.4 C 14.5 km/h
3 05-07-2020 00:10:00 21.4 C 13.5 g/m*3 21.4 C 6.4 km/h
4 05-07-2020 00:15:00 21.4 C 13.5 g/m*3 21.4 C 16.1 km/h
5 05-07-2020 00:20:00 21.3 C 13.42 g/m*3 21.3 C 11.3 km/h
6 05-07-2020 00:25:00 21.4 C 13.5 g/m*3 21.4 C 9.7 km/h
7 05-07-2020 00:30:00 21.3 C 13.42 g/m*3 21.3 C 6.4 km/h
8 05-07-2020 00:35:00 21.3 C 13.42 g/m*3 21.3 C 3.2 km/h
9 05-07-2020 00:40:00 21.3 C 13.61 g/m*3 21.3 C 8.1 km/h
10 05-07-2020 00:45:00 21.2 C 13.53 g/m*3 21.2 C 6.4 km/h
11 05-07-2020 00:50:00 21.2 C 13.71 g/m*3 21.2 C 4.8 km/h
12 05-07-2020 00:55:00 21.2 C 13.71 g/m*3 21.2 C 9.7 km/h
13 05-07-2020 01:00:00 21.2 C 13.71 g/m*3 21.2 C 1.6 km/h
14 05-07-2020 01:05:00 21.1 C 13.82 g/m*3 21.1 C 9.7 km/h
15 05-07-2020 01:10:00 21 C 13.74 g/m*3 21 C 14.5 km/h
16 05-07-2020 01:15:00 21 C 13.56 g/m*3 21 C 8.1 km/h
17 05-07-2020 01:20:00 21 C 13.74 g/m*3 21 C 4.8 km/h
18 05-07-2020 01:25:00 21.1 C 13.82 g/m*3 21.1 C 6.4 km/h
19 05-07-2020 01:30:00 21.1 C 13.63 g/m*3 21.1 C 11.3 km/h
20 05-07-2020 01:35:00 21.1 C 13.63 g/m*3 21.1 C 8.1 km/h
21 05-07-2020 01:40:00 21.2 C 13.71 g/m*3 21.2 C 9.7 km/h
22 05-07-2020 01:45:00 21.2 C 13.9 g/m*3 21.2 C 8.1 km/h
23 05-07-2020 01:50:00 21.2 C 13.9 g/m*3 21.2 C 17.7 km/h
24 05-07-2020 01:55:00 21.2 C 13.9 g/m*3 21.2 C 16.1 km/h
25 05-07-2020 02:00:00 21.2 C 13.9 g/m*3 21.2 C 14.5 km/h
Sensor: Nr:Datum:Temp:Abs-Feuchte:Windchill:Wind:
Aussen-T/F 26 05-07-2020 02:05:00 21.2 C 13.9 g/m*3 21.2 C 12.9 km/h
27 05-07-2020 02:10:00 21.1 C 13.82 g/m*3 21.1 C 4.8 km/h
28 05-07-2020 02:15:00 21.1 C 14 g/m*3 21.1 C 11.3 km/h
29 05-07-2020 02:20:00 21 C 13.92 g/m*3 21 C 8.1 km/h
30 05-07-2020 02:25:00 20.9 C 13.84 g/m*3 20.9 C 6.4 km/h
31 05-07-2020 02:30:00 20.9 C 13.84 g/m*3 20.9 C 4.8 km/h
32 05-07-2020 02:35:00 20.9 C 13.84 g/m*3 20.9 C 4.8 km/h
33 05-07-2020 02:40:00 20.9 C 13.84 g/m*3 20.9 C 6.4 km/h
34 05-07-2020 02:45:00 20.9 C 13.84 g/m*3 20.9 C 8.1 km/h
35 05-07-2020 02:50:00 20.9 C 13.84 g/m*3 20.9 C 4.8 km/h
36 05-07-2020 02:55:00 20.9 C 13.84 g/m*3 20.9 C 12.9 km/h
37 05-07-2020 03:00:00 21 C 13.74 g/m*3 21 C 11.3 km/h
38 05-07-2020 03:05:00 21 C 13.74 g/m*3 21 C 11.3 km/h
39 05-07-2020 03:10:00 21 C 13.74 g/m*3 21 C 9.7 km/h
40 05-07-2020 03:15:00 21 C 13.74 g/m*3 21 C 4.8 km/h
41 05-07-2020 03:20:00 20.9 C 13.66 g/m*3 20.9 C 12.9 km/h
42 05-07-2020 03:25:00 20.9 C 13.66 g/m*3 20.9 C 16.1 km/h
43 05-07-2020 03:30:00 20.9 C 13.66 g/m*3 20.9 C 8.1 km/h
44 05-07-2020 03:35:00 20.9 C 13.66 g/m*3 20.9 C 12.9 km/h
45 05-07-2020 03:40:00 20.9 C 13.66 g/m*3 20.9 C 11.3 km/h
46 05-07-2020 03:45:00 21 C 13.74 g/m*3 21 C 6.4 km/h
47 05-07-2020 03:50:00 21.1 C 13.82 g/m*3 21.1 C 12.9 km/h
48 05-07-2020 03:55:00 21.1 C 13.82 g/m*3 21.1 C 6.4 km/h
49 05-07-2020 04:00:00 21 C 13.74 g/m*3 21 C 6.4 km/h
50 05-07-2020 04:05:00 21 C 13.74 g/m*3 21 C 12.9 km/h
Sensor: Nr:Datum:Temp:Abs-Feuchte:Windchill:Wind:
Aussen-T/F 51 05-07-2020 04:10:00 21.1 C 13.82 g/m*3 21.1 C 11.3 km/h
52 05-07-2020 04:15:00 21.1 C 13.82 g/m*3 21.1 C 14.5 km/h
53 05-07-2020 04:20:00 21.1 C 13.82 g/m*3 21.1 C 14.5 km/h
54 05-07-2020 04:25:00 21.1 C 13.82 g/m*3 21.1 C 12.9 km/h
55 05-07-2020 04:30:00 21.1 C 13.82 g/m*3 21.1 C 3.2 km/h
56 05-07-2020 04:35:00 21 C 13.92 g/m*3 21 C 6.4 km/h
57 05-07-2020 04:40:00 21 C 13.92 g/m*3 21 C 14.5 km/h
58 05-07-2020 04:45:00 21 C 13.92 g/m*3 21 C 6.4 km/h
59 05-07-2020 04:50:00 21.1 C 14 g/m*3 21.1 C 12.9 km/h
60 05-07-2020 04:55:00 21.1 C 14 g/m*3 21.1 C 6.4 km/h
61 05-07-2020 05:00:00 21.1 C 13.82 g/m*3 21.1 C 16.1 km/h
62 05-07-2020 05:05:00 21.1 C 14 g/m*3 21.1 C 11.3 km/h
63 05-07-2020 05:10:00 21.1 C 14 g/m*3 21.1 C 12.9 km/h
64 05-07-2020 05:15:00 21.1 C 14 g/m*3 21.1 C 12.9 km/h
65 05-07-2020 05:20:00 21.1 C 14 g/m*3 21.1 C 12.9 km/h
66 05-07-2020 05:25:00 21.1 C 14 g/m*3 21.1 C 12.9 km/h
67 05-07-2020 05:30:00 21.1 C 14 g/m*3 21.1 C 12.9 km/h
68 05-07-2020 05:35:00 21.1 C 13.82 g/m*3 21.1 C 14.5 km/h
69 05-07-2020 05:40:00 21.1 C 14 g/m*3 21.1 C 12.9 km/h
70 05-07-2020 05:45:00 21.1 C 14 g/m*3 21.1 C 12.9 km/h
71 05-07-2020 05:50:00 21.1 C 14 g/m*3 21.1 C 12.9 km/h
72 05-07-2020 05:55:00 21.1 C 14 g/m*3 21.1 C 12.9 km/h
73 05-07-2020 06:00:00 21 C 13.92 g/m*3 21 C 8.1 km/h
74 05-07-2020 06:05:00 21 C 13.92 g/m*3 21 C 9.7 km/h
75 05-07-2020 06:10:00 21 C 13.92 g/m*3 21 C 8.1 km/h
Sensor: Nr:Datum:Temp:Abs-Feuchte:Windchill:Wind:
Aussen-T/F 76 05-07-2020 06:15:00 20.9 C 13.84 g/m*3 20.9 C 14.5 km/h
77 05-07-2020 06:20:00 20.9 C 13.84 g/m*3 20.9 C 14.5 km/h
78 05-07-2020 06:25:00 20.9 C 13.84 g/m*3 20.9 C 12.9 km/h
79 05-07-2020 06:30:00 20.9 C 13.84 g/m*3 20.9 C 12.9 km/h
80 05-07-2020 06:35:00 20.9 C 14.02 g/m*3 20.9 C 11.3 km/h
81 05-07-2020 06:40:00 20.9 C 14.02 g/m*3 20.9 C 11.3 km/h
82 05-07-2020 06:45:00 20.9 C 14.02 g/m*3 20.9 C 16.1 km/h
83 05-07-2020 06:50:00 20.9 C 14.02 g/m*3 20.9 C 17.7 km/h
84 05-07-2020 06:55:00 21 C 14.11 g/m*3 21 C 11.3 km/h
85 05-07-2020 07:00:00 21 C 14.11 g/m*3 21 C 12.9 km/h
86 05-07-2020 07:05:00 21 C 14.11 g/m*3 21 C 12.9 km/h
87 05-07-2020 07:10:00 20.9 C 14.02 g/m*3 20.9 C 16.1 km/h
88 05-07-2020 07:15:00 20.9 C 14.02 g/m*3 20.9 C 17.7 km/h
89 05-07-2020 07:20:00 20.8 C 14.12 g/m*3 20.8 C 20.9 km/h
90 05-07-2020 07:25:00 20.9 C 14.21 g/m*3 20.9 C 17.7 km/h
91 05-07-2020 07:30:00 21.1 C 14.19 g/m*3 21.1 C 27.4 km/h
92 05-07-2020 07:35:00 21.2 C 14.27 g/m*3 21.2 C 19.3 km/h
93 05-07-2020 07:40:00 21.2 C 14.46 g/m*3 21.2 C 16.1 km/h
94 05-07-2020 07:45:00 21.2 C 14.27 g/m*3 21.2 C 19.3 km/h
95 05-07-2020 07:50:00 21.2 C 14.46 g/m*3 21.2 C 17.7 km/h
96 05-07-2020 07:55:00 21.2 C 14.46 g/m*3 21.2 C 16.1 km/h
97 05-07-2020 08:00:00 21.2 C 14.46 g/m*3 21.2 C 22.5 km/h
98 05-07-2020 08:05:00 21.3 C 14.54 g/m*3 21.3 C 16.1 km/h
99 05-07-2020 08:10:00 21.3 C 14.54 g/m*3 21.3 C 16.1 km/h
100 05-07-2020 08:15:00 21.4 C 14.62 g/m*3 21.4 C 14.5 km/h
Sensor: Nr:Datum:Temp:Abs-Feuchte:Windchill:Wind:
Aussen-T/F 101 05-07-2020 08:20:00 21.4 C 14.44 g/m*3 21.4 C 12.9 km/h
102 05-07-2020 08:25:00 21.4 C 14.44 g/m*3 21.4 C 20.9 km/h
103 05-07-2020 08:30:00 21.4 C 14.44 g/m*3 21.4 C 19.3 km/h
104 05-07-2020 08:35:00 21.4 C 14.62 g/m*3 21.4 C 14.5 km/h
105 05-07-2020 08:40:00 21.4 C 14.62 g/m*3 21.4 C 14.5 km/h
106 05-07-2020 08:45:00 21.4 C 14.62 g/m*3 21.4 C 14.5 km/h
107 05-07-2020 08:50:00 21.5 C 14.71 g/m*3 21.5 C 12.9 km/h
108 05-07-2020 08:55:00 21.6 C 14.79 g/m*3 21.6 C 16.1 km/h
109 05-07-2020 09:00:00 21.6 C 14.79 g/m*3 21.6 C 14.5 km/h
110 05-07-2020 09:05:00 21.7 C 14.69 g/m*3 21.7 C 14.5 km/h
111 05-07-2020 09:10:00 21.7 C 14.88 g/m*3 21.7 C 12.9 km/h
112 05-07-2020 09:15:00 21.8 C 14.77 g/m*3 21.8 C 16.1 km/h
113 05-07-2020 09:20:00 21.9 C 14.67 g/m*3 21.9 C 16.1 km/h
114 05-07-2020 09:25:00 21.9 C 14.67 g/m*3 21.9 C 14.5 km/h
115 05-07-2020 09:30:00 22.1 C 15.03 g/m*3 22.1 C 12.9 km/h
116 05-07-2020 09:35:00 22.2 C 14.92 g/m*3 22.2 C 12.9 km/h
117 05-07-2020 09:40:00 22.2 C 14.92 g/m*3 22.2 C 27.4 km/h
118 05-07-2020 09:45:00 22.3 C 15.01 g/m*3 22.3 C 11.3 km/h
119 05-07-2020 09:50:00 22.3 C 14.81 g/m*3 22.3 C 16.1 km/h
120 05-07-2020 09:55:00 22.3 C 14.81 g/m*3 22.3 C 17.7 km/h
121 05-07-2020 10:00:00 22.2 C 14.92 g/m*3 22.2 C 12.9 km/h
122 05-07-2020 10:05:00 22.2 C 14.72 g/m*3 22.2 C 27.4 km/h
123 05-07-2020 10:10:00 22.3 C 14.81 g/m*3 22.3 C 17.7 km/h
124 05-07-2020 10:15:00 22.2 C 14.53 g/m*3 22.2 C 22.5 km/h
125 05-07-2020 10:20:00 22.3 C 14.81 g/m*3 22.3 C 11.3 km/h
Sensor: Nr:Datum:Temp:Abs-Feuchte:Windchill:Wind:
Aussen-T/F 126 05-07-2020 10:25:00 22.3 C 14.81 g/m*3 22.3 C 22.5 km/h
127 05-07-2020 10:30:00 22.3 C 14.61 g/m*3 22.3 C 22.5 km/h
128 05-07-2020 10:35:00 22.4 C 14.7 g/m*3 22.4 C 16.1 km/h
129 05-07-2020 10:40:00 22.4 C 14.5 g/m*3 22.4 C 17.7 km/h
130 05-07-2020 10:45:00 22.4 C 14.7 g/m*3 22.4 C 19.3 km/h
131 05-07-2020 10:50:00 22.6 C 14.87 g/m*3 22.6 C 22.5 km/h
132 05-07-2020 10:55:00 22.7 C 14.75 g/m*3 22.7 C 24.1 km/h
133 05-07-2020 11:00:00 22.7 C 14.55 g/m*3 22.7 C 20.9 km/h
134 05-07-2020 11:05:00 22.7 C 14.75 g/m*3 22.7 C 14.5 km/h
135 05-07-2020 11:10:00 22.8 C 14.63 g/m*3 22.8 C 16.1 km/h
136 05-07-2020 11:15:00 22.9 C 14.71 g/m*3 22.9 C 22.5 km/h
137 05-07-2020 11:20:00 22.8 C 14.43 g/m*3 22.8 C 24.1 km/h
138 05-07-2020 11:25:00 22.9 C 14.92 g/m*3 22.9 C 17.7 km/h
139 05-07-2020 11:30:00 23 C 14.59 g/m*3 23 C 29 km/h
140 05-07-2020 11:35:00 23.1 C 14.68 g/m*3 23.1 C 19.3 km/h
141 05-07-2020 11:40:00 23.3 C 14.84 g/m*3 23.3 C 17.7 km/h
142 05-07-2020 11:45:00 23.6 C 15.1 g/m*3 23.6 C 16.1 km/h
143 05-07-2020 11:50:00 23.4 C 14.72 g/m*3 23.4 C 17.7 km/h
144 05-07-2020 11:55:00 23.3 C 14.84 g/m*3 23.3 C 20.9 km/h
145 05-07-2020 12:00:00 23.3 C 14.84 g/m*3 23.3 C 17.7 km/h
146 05-07-2020 12:05:00 23.4 C 14.93 g/m*3 23.4 C 24.1 km/h
147 05-07-2020 12:10:00 23.4 C 14.93 g/m*3 23.4 C 16.1 km/h
148 05-07-2020 12:15:00 23.3 C 14.84 g/m*3 23.3 C 22.5 km/h
149 05-07-2020 12:20:00 23.4 C 14.93 g/m*3 23.4 C 19.3 km/h
150 05-07-2020 12:25:00 23.5 C 14.8 g/m*3 23.5 C 19.3 km/h
Sensor: Nr:Datum:Temp:Abs-Feuchte:Windchill:Wind:
Aussen-T/F 151 05-07-2020 12:30:00 23.5 C 15.01 g/m*3 23.5 C 16.1 km/h
152 05-07-2020 12:35:00 23.6 C 14.89 g/m*3 23.6 C 19.3 km/h
153 05-07-2020 12:40:00 23.6 C 14.89 g/m*3 23.6 C 19.3 km/h
154 05-07-2020 12:45:00 23.6 C 14.89 g/m*3 23.6 C 16.1 km/h
155 05-07-2020 12:50:00 23.6 C 15.1 g/m*3 23.6 C 20.9 km/h
156 05-07-2020 12:55:00 23.4 C 14.93 g/m*3 23.4 C 20.9 km/h
157 05-07-2020 13:00:00 23.5 C 15.01 g/m*3 23.5 C 17.7 km/h
158 05-07-2020 13:05:00 23.6 C 15.1 g/m*3 23.6 C 16.1 km/h
159 05-07-2020 13:10:00 23.6 C 14.89 g/m*3 23.6 C 17.7 km/h
160 05-07-2020 13:15:00 23.7 C 14.97 g/m*3 23.7 C 20.9 km/h
161 05-07-2020 13:20:00 23.8 C 15.06 g/m*3 23.8 C 16.1 km/h
162 05-07-2020 13:25:00 23.8 C 15.06 g/m*3 23.8 C 24.1 km/h
163 05-07-2020 13:30:00 23.8 C 15.27 g/m*3 23.8 C 14.5 km/h
164 05-07-2020 13:35:00 23.9 C 15.14 g/m*3 23.9 C 22.5 km/h
165 05-07-2020 13:40:00 24.2 C 14.96 g/m*3 24.2 C 17.7 km/h
166 05-07-2020 13:45:00 24.3 C 14.83 g/m*3 24.3 C 19.3 km/h
167 05-07-2020 13:50:00 24.4 C 15.13 g/m*3 24.4 C 19.3 km/h
168 05-07-2020 13:55:00 24.6 C 14.85 g/m*3 24.6 C 20.9 km/h
169 05-07-2020 14:00:00 24.8 C 14.57 g/m*3 24.8 C 17.7 km/h
170 05-07-2020 14:05:00 25 C 14.73 g/m*3 25 C 16.1 km/h
171 05-07-2020 14:10:00 25.2 C 14.67 g/m*3 25.2 C 17.7 km/h
172 05-07-2020 14:15:00 25.4 C 14.6 g/m*3 25.4 C 16.1 km/h
173 05-07-2020 14:20:00 25.6 C 14.52 g/m*3 25.6 C 25.7 km/h
174 05-07-2020 14:25:00 25.5 C 14.68 g/m*3 25.5 C 14.5 km/h
175 05-07-2020 14:30:00 25.6 C 14.76 g/m*3 25.6 C 16.1 km/h
Sensor: Nr:Datum:Temp:Abs-Feuchte:Windchill:Wind:
Aussen-T/F 176 05-07-2020 14:35:00 25.8 C 14.69 g/m*3 25.8 C 16.1 km/h
177 05-07-2020 14:40:00 25.9 C 14.53 g/m*3 25.9 C 22.5 km/h
178 05-07-2020 14:45:00 26.1 C 14.44 g/m*3 26.1 C 17.7 km/h
179 05-07-2020 14:50:00 26.2 C 14.77 g/m*3 26.2 C 20.9 km/h
180 05-07-2020 14:55:00 26.2 C 14.52 g/m*3 26.2 C 16.1 km/h
181 05-07-2020 15:00:00 25.9 C 14.53 g/m*3 25.9 C 11.3 km/h
182 05-07-2020 15:05:00 25.7 C 14.36 g/m*3 25.7 C 9.7 km/h
183 05-07-2020 15:10:00 25.7 C 14.36 g/m*3 25.7 C 11.3 km/h
184 05-07-2020 15:15:00 25.7 C 14.36 g/m*3 25.7 C 14.5 km/h
185 05-07-2020 15:20:00 25.4 C 14.13 g/m*3 25.4 C 20.9 km/h
186 05-07-2020 15:25:00 25.3 C 14.28 g/m*3 25.3 C 12.9 km/h
187 05-07-2020 15:30:00 25.2 C 14.2 g/m*3 25.2 C 16.1 km/h
188 05-07-2020 15:35:00 25.2 C 14.43 g/m*3 25.2 C 12.9 km/h
189 05-07-2020 15:40:00 25.2 C 14.43 g/m*3 25.2 C 12.9 km/h
190 05-07-2020 15:45:00 25.2 C 14.43 g/m*3 25.2 C 19.3 km/h
191 05-07-2020 15:50:00 25.3 C 14.28 g/m*3 25.3 C 19.3 km/h
192 05-07-2020 15:55:00 25.3 C 14.51 g/m*3 25.3 C 20.9 km/h
193 05-07-2020 16:00:00 25.6 C 14.76 g/m*3 25.6 C 11.3 km/h
194 05-07-2020 16:05:00 25.7 C 14.84 g/m*3 25.7 C 14.5 km/h
195 05-07-2020 16:10:00 25.8 C 14.93 g/m*3 25.8 C 12.9 km/h
196 05-07-2020 16:15:00 26.2 C 15.26 g/m*3 26.2 C 12.9 km/h
197 05-07-2020 16:20:00 26.3 C 14.85 g/m*3 26.3 C 16.1 km/h
198 05-07-2020 16:25:00 26.1 C 14.69 g/m*3 26.1 C 16.1 km/h
199 05-07-2020 16:30:00 25.9 C 14.53 g/m*3 25.9 C 14.5 km/h
200 05-07-2020 16:35:00 25.9 C 15.01 g/m*3 25.9 C 16.1 km/h
Sensor: Nr:Datum:Temp:Abs-Feuchte:Windchill:Wind:
Aussen-T/F 201 05-07-2020 16:40:00 26.1 C 14.69 g/m*3 26.1 C 19.3 km/h
202 05-07-2020 16:45:00 26.1 C 14.69 g/m*3 26.1 C 11.3 km/h
203 05-07-2020 16:50:00 25.8 C 14.69 g/m*3 25.8 C 19.3 km/h
204 05-07-2020 16:55:00 25.6 C 14.52 g/m*3 25.6 C 12.9 km/h
205 05-07-2020 17:00:00 25.6 C 14.52 g/m*3 25.6 C 17.7 km/h
206 05-07-2020 17:05:00 25.6 C 14.52 g/m*3 25.6 C 11.3 km/h
207 05-07-2020 17:10:00 25.4 C 14.36 g/m*3 25.4 C 16.1 km/h
208 05-07-2020 17:15:00 25.3 C 14.51 g/m*3 25.3 C 16.1 km/h
209 05-07-2020 17:20:00 25.3 C 14.51 g/m*3 25.3 C 16.1 km/h
210 05-07-2020 17:25:00 25.3 C 14.75 g/m*3 25.3 C 9.7 km/h
211 05-07-2020 17:30:00 25.4 C 14.83 g/m*3 25.4 C 16.1 km/h
212 05-07-2020 17:35:00 25.4 C 14.83 g/m*3 25.4 C 19.3 km/h
213 05-07-2020 17:40:00 25.6 C 14.76 g/m*3 25.6 C 17.7 km/h
214 05-07-2020 17:45:00 25.7 C 14.6 g/m*3 25.7 C 19.3 km/h
215 05-07-2020 17:50:00 25.7 C 14.84 g/m*3 25.7 C 17.7 km/h
216 05-07-2020 17:55:00 25.8 C 14.93 g/m*3 25.8 C 14.5 km/h
217 05-07-2020 18:00:00 25.8 C 14.69 g/m*3 25.8 C 17.7 km/h
218 05-07-2020 18:05:00 25.6 C 14.76 g/m*3 25.6 C 20.9 km/h
219 05-07-2020 18:10:00 25.8 C 14.69 g/m*3 25.8 C 17.7 km/h
220 05-07-2020 18:15:00 26.3 C 15.35 g/m*3 26.3 C 19.3 km/h
221 05-07-2020 18:20:00 26 C 15.09 g/m*3 26 C 22.5 km/h
222 05-07-2020 18:25:00 25.4 C 14.83 g/m*3 25.4 C 19.3 km/h
223 05-07-2020 18:30:00 25.4 C 15.3 g/m*3 25.4 C 14.5 km/h
224 05-07-2020 18:35:00 25.7 C 15.08 g/m*3 25.7 C 17.7 km/h
225 05-07-2020 18:40:00 25.5 C 14.91 g/m*3 25.5 C 19.3 km/h
Sensor: Nr:Datum:Temp:Abs-Feuchte:Windchill:Wind:
Aussen-T/F 226 05-07-2020 18:45:00 25.4 C 14.83 g/m*3 25.4 C 27.4 km/h
227 05-07-2020 18:50:00 25.4 C 14.6 g/m*3 25.4 C 25.7 km/h
228 05-07-2020 18:55:00 25.3 C 14.51 g/m*3 25.3 C 22.5 km/h
229 05-07-2020 19:00:00 25.1 C 14.58 g/m*3 25.1 C 16.1 km/h
230 05-07-2020 19:05:00 24.9 C 14.42 g/m*3 24.9 C 16.1 km/h
231 05-07-2020 19:10:00 25.2 C 14.9 g/m*3 25.2 C 12.9 km/h
232 05-07-2020 19:15:00 25.9 C 15.25 g/m*3 25.9 C 17.7 km/h
233 05-07-2020 19:20:00 25.9 C 14.77 g/m*3 25.9 C 20.9 km/h
234 05-07-2020 19:25:00 25.9 C 15.01 g/m*3 25.9 C 16.1 km/h
235 05-07-2020 19:30:00 26.1 C 14.93 g/m*3 26.1 C 20.9 km/h
236 05-07-2020 19:35:00 25.7 C 14.84 g/m*3 25.7 C 30.6 km/h
237 05-07-2020 19:40:00 25.6 C 14.76 g/m*3 25.6 C 16.1 km/h
238 05-07-2020 19:45:00 25.5 C 14.68 g/m*3 25.5 C 16.1 km/h
239 05-07-2020 19:50:00 25.3 C 14.75 g/m*3 25.3 C 16.1 km/h
240 05-07-2020 19:55:00 25.2 C 14.9 g/m*3 25.2 C 12.9 km/h
241 05-07-2020 20:00:00 24.9 C 14.65 g/m*3 24.9 C 14.5 km/h
242 05-07-2020 20:05:00 24.7 C 14.71 g/m*3 24.7 C 19.3 km/h
243 05-07-2020 20:10:00 24.4 C 14.69 g/m*3 24.4 C 14.5 km/h
244 05-07-2020 20:15:00 24.1 C 14.66 g/m*3 24.1 C 16.1 km/h
245 05-07-2020 20:20:00 23.8 C 14.41 g/m*3 23.8 C 14.5 km/h
246 05-07-2020 20:25:00 23.9 C 14.71 g/m*3 23.9 C 14.5 km/h
247 05-07-2020 20:30:00 24.1 C 14.88 g/m*3 24.1 C 19.3 km/h
248 05-07-2020 20:35:00 24.3 C 14.83 g/m*3 24.3 C 12.9 km/h
249 05-07-2020 20:40:00 24.2 C 14.52 g/m*3 24.2 C 14.5 km/h
250 05-07-2020 20:45:00 24.1 C 14.66 g/m*3 24.1 C 16.1 km/h
Sensor: Nr:Datum:Temp:Abs-Feuchte:Windchill:Wind:
Aussen-T/F 251 05-07-2020 20:50:00 24.1 C 14.66 g/m*3 24.1 C 6.4 km/h
252 05-07-2020 20:55:00 23.9 C 14.49 g/m*3 23.9 C 20.9 km/h
253 05-07-2020 21:00:00 23.7 C 14.54 g/m*3 23.7 C 14.5 km/h
254 05-07-2020 21:05:00 23.4 C 14.72 g/m*3 23.4 C 9.7 km/h
255 05-07-2020 21:10:00 23.2 C 14.55 g/m*3 23.2 C 12.9 km/h
256 05-07-2020 21:15:00 22.9 C 14.51 g/m*3 22.9 C 20.9 km/h
257 05-07-2020 21:20:00 22.7 C 14.55 g/m*3 22.7 C 12.9 km/h
258 05-07-2020 21:25:00 22.5 C 14.58 g/m*3 22.5 C 17.7 km/h
259 05-07-2020 21:30:00 22.4 C 14.5 g/m*3 22.4 C 11.3 km/h
260 05-07-2020 21:35:00 22.3 C 14.61 g/m*3 22.3 C 9.7 km/h
261 05-07-2020 21:40:00 22.2 C 14.53 g/m*3 22.2 C 9.7 km/h
262 05-07-2020 21:45:00 22 C 14.56 g/m*3 22 C 9.7 km/h
263 05-07-2020 21:50:00 21.9 C 14.47 g/m*3 21.9 C 8.1 km/h
264 05-07-2020 21:55:00 21.8 C 14.39 g/m*3 21.8 C 6.4 km/h
265 05-07-2020 22:00:00 21.7 C 14.31 g/m*3 21.7 C 12.9 km/h
266 05-07-2020 22:05:00 21.7 C 14.5 g/m*3 21.7 C 11.3 km/h
267 05-07-2020 22:10:00 21.7 C 14.5 g/m*3 21.7 C 12.9 km/h
268 05-07-2020 22:15:00 21.6 C 14.41 g/m*3 21.6 C 11.3 km/h
269 05-07-2020 22:20:00 21.6 C 14.41 g/m*3 21.6 C 12.9 km/h
270 05-07-2020 22:25:00 21.5 C 14.33 g/m*3 21.5 C 9.7 km/h
271 05-07-2020 22:30:00 21.4 C 14.25 g/m*3 21.4 C 9.7 km/h
272 05-07-2020 22:35:00 21.3 C 14.17 g/m*3 21.3 C 9.7 km/h
273 05-07-2020 22:40:00 21.3 C 14.17 g/m*3 21.3 C 8.1 km/h
274 05-07-2020 22:45:00 21.3 C 14.17 g/m*3 21.3 C 11.3 km/h
275 05-07-2020 22:50:00 21.2 C 14.27 g/m*3 21.2 C 14.5 km/h
Sensor: Nr:Datum:Temp:Abs-Feuchte:Windchill:Wind:
Aussen-T/F 276 05-07-2020 22:55:00 21.2 C 14.27 g/m*3 21.2 C 14.5 km/h
277 05-07-2020 23:00:00 21.1 C 14.19 g/m*3 21.1 C 6.4 km/h
278 05-07-2020 23:05:00 21.1 C 14.19 g/m*3 21.1 C 8.1 km/h
279 05-07-2020 23:10:00 20.9 C 14.02 g/m*3 20.9 C 12.9 km/h
280 05-07-2020 23:15:00 20.9 C 14.21 g/m*3 20.9 C 6.4 km/h
281 05-07-2020 23:20:00 20.8 C 14.12 g/m*3 20.8 C 6.4 km/h
282 05-07-2020 23:25:00 20.8 C 14.12 g/m*3 20.8 C 4.8 km/h
283 05-07-2020 23:30:00 20.7 C 14.04 g/m*3 20.7 C 3.2 km/h
284 05-07-2020 23:35:00 20.6 C 14.14 g/m*3 20.6 C 0 km/h
285 05-07-2020 23:40:00 20.5 C 14.06 g/m*3 20.5 C 4.8 km/h
286 05-07-2020 23:45:00 20.3 C 14.07 g/m*3 20.3 C 1.6 km/h
287 05-07-2020 23:50:00 20.2 C 13.99 g/m*3 20.2 C 3.2 km/h
288 05-07-2020 23:55:00 19.9 C 13.92 g/m*3 19.9 C 3.2 km/h

Legende:
   Min
   Max


Maximal/Minimal-Werte vom 27.05.2020 - 29.06.2020

Sensor Min Max Avg
Temp
(Aussen-T/F)
6.7 °C
29-05-2020  05:40:00
32.1 °C
26-06-2020  16:40:00
17.58 °C

Die Daten stammen von einer Davis Vantage Pro 2 Wetter-Station und werden unter Linux mit der Software wview2wettercgi und aufbereitet. Alle Angaben erfolgen ohne Gewähr für ihre Vollständigkeit oder Richtigkeit.
Kontakt: Rainer Krienke krienke@uni-koblenz.de . Meine Webseiten an der Uni Koblenz oder privat.
Version: $Revision: 0.78 $